Regional Weather Roundup
Issued by NWS

Home | Current Version | Previous Version | Text Only | Print | Product List | Glossary On
Versions: 1 2 3 4 5 6 7 8 9 10 11 12 13 14 15 16 17 18 19 20 21 22 23 24 25 26 27 28 29 30 31 32 33 34 35 36 37 38 39 40 41 42 43 44 45 46 47 48 49 50
624
ASUS42 KKEY 260010
RWRKEY

FLORIDA REGIONAL WEATHER ROUNDUP FOR THE FLORIDA KEYS
NATIONAL WEATHER SERVICE KEY WEST FLORIDA
800 PM EDT MON JUL 25 2016

...SOUTH FLORIDA AND THE KEYS...

CITY           SKY/WX    TMP DP  RH WIND       PRES   REMARKS
FORT MYERS     CLOUDY    82  73  74 E7        30.03R
SW REGIONAL AP CLOUDY    81  74  79 E6        30.04R
NAPLES         CLOUDY    82  75  79 NE6       30.03R
MIAMI          PTCLDY    85  72  65 SE7       30.04R HX  91
WEST KENDALL   CLEAR     84  73  69 E8        30.03R HX  90
HOMESTEAD      CLEAR     85  74  70 E5        30.03R HX  93
MARATHON       CLEAR     85  76  74 E8        30.02R HX  94
BOCA CHICA NAS NOT AVBL
KEY WEST INTL  PTCLDY    86  78  77 E13       30.02R HX  98

...INTERNATIONAL WEATHER...

CITY           SKY/WX    TMP DP  RH WIND       PRES   REMARKS
NASSAU BAHAMAS PTCLDY    86  75  70 E8        30.06R HX  95
CANCUN MEXICO  MOCLDY    86  79  79 E5        29.96R HX  99
COZUMEL MEXICO PTCLDY    82  77  83 E8        29.94S HX  91

ADJACENT COASTAL WATERS...

STATION/POSITION TIME  SKY/WX   TEMP    WIND        PRES    WAVE
                                AIR SEA DIR/SP/G            HT/PER
                 (UTC)          (F)     (DEG/KT/KT) (MB)    (FT/S)
PULASKI SHOAL LI 0000            84      80/  7/  7 1016.5R
SAND KEY         2350            85     120/ 10/ 12 1016.7R
LONG KEY         0000            85 88  120/ 11/ 13 1016.8R
FOWEY ROCKS      0000            85 85  110/  7/  7 1017.9R

$$




USA.gov is the U.S. government's official web portal to all federal, state and local government web resources and services.